FALCON 9 DEB (47850 NORAD) Tracking and Keplerian Element Data

This shows tracking and keplerian element data for the satellite.

Feedback or suggestion? Click here.




ElementValue
Catalog47850
NameFALCON 9 DEB
Epoch Orbit387
Epoch Day92.15191297
Epoch Year2021
RAAN74.883
Inclination53.0368
Eccentricity0.0005548
Argument of Perigee244.0173
Mean Anonmoly116.0304
Mean Motion16.4355434
Decay Rate0.08297742
L11 47850U 21018BR 21092.15191297 .08297742 12419-4 33570-3 0 9996
L22 47850 53.0368 74.8830 0005548 244.0173 116.0304 16.43554340 3872



Live tracking and technical data element details for FALCON 9 DEB (NORAD 47850). FALCON 9 DEB can be tracked NOW for your location showing map with azimuth and elevation plus other details from your city location.







IsCatalogInMostPopularTable: catalog: 47850, numindb: 108
Update: records affected: 1



GetName: 47850 FALCON 9 DEB

Hit Count: updated at: Sun, 11 Jun 2023 01:04:38 GMT